Weather History for Wooster, OH

Change the Weather History Date:

Sunday, December 29, 2013

  Actual Average Record
Temperature  
Mean Temperature 36 °F -  
Max Temperature 41 °F 32 °F 57 °F (1996)
Min Temperature 28 °F 19 °F 12 °F (2000)
Degree Days  
Heating Degree Days 30    
Moisture  
Dew Point 33 °F    
Average Humidity 83    
Maximum Humidity 93    
Minimum Humidity 57    
Precipitation  
Precipitation 0.10 in - - ()
Sea Level Pressure  
Sea Level Pressure 29.83 in    
Wind  
Wind Speed 8 mph (West)    
Max Wind Speed 21 mph    
Max Gust Speed 28 mph    
Visibility 8 miles    
Events Rain    
Averages and records for this station are not official NWS values.
T = Trace of Precipitation, MM = Missing Value Source: NWS Daily Summary

Daily Weather History Graph

Daily Weather History Graph

Search for Another Location

Airport:

Trip Planner

Search our weather history database for the weather conditions in past years. The results will help you decide how hot, cold, wet, or windy it might be!

Date:

Astronomy

Dec. 29, 2013 Rise Set
Actual Time 7:51 AM EST 5:08 PM EST
Civil Twilight 7:20 AM EST 5:39 PM EST
Nautical Twilight 6:46 AM EST 6:13 PM EST
Astronomical Twilight 6:12 AM EST 6:46 PM EST
Moon 4:33 AM EST (12/29) 2:45 PM EST (12/29)
Length of Visible Light 10h 18m
Length of Day
9h 16m
Waning Crescent, 11% of the Moon is Illuminated
Dec 29
Waning Crescent
Jan 1
New
Jan 7
First Quarter
Jan 15
Full
Jan 24
Last Quarter

Hourly Weather History & Observations

Time (EST) Temp. Windchill Dew Point Humidity Pressure Visibility Wind Dir Wind Speed Gust Speed Precip Events Conditions
12:56 AM 39.9 °F 32.9 °F 28.0 °F 63% 29.99 in 10.0 mi SSW 11.5 mph - N/A   Clear
1:56 AM 39.9 °F 33.9 °F 27.0 °F 60% 29.99 in 10.0 mi SSW 9.2 mph - N/A   Clear
2:56 AM 39.9 °F 34.5 °F 26.1 °F 58% 29.97 in 10.0 mi South 8.1 mph - N/A   Clear
3:56 AM 39.0 °F 34.8 °F 26.1 °F 60% 29.95 in 10.0 mi SSW 5.8 mph - N/A   Clear
4:56 AM 39.0 °F 35.7 °F 26.1 °F 60% 29.92 in 10.0 mi South 4.6 mph - N/A   Overcast
5:56 AM 39.0 °F - 25.0 °F 57% 29.89 in 10.0 mi Calm Calm - N/A   Overcast
6:56 AM 37.9 °F 35.5 °F 26.1 °F 62% 29.86 in 10.0 mi SE 3.5 mph - N/A   Overcast
7:56 AM 37.0 °F 34.5 °F 28.0 °F 70% 29.88 in 10.0 mi South 3.5 mph - 0.00 in Rain Light Rain
8:56 AM 37.9 °F 32.1 °F 30.9 °F 76% 29.84 in 10.0 mi South 8.1 mph - 0.00 in Rain Light Rain
9:56 AM 37.9 °F 32.7 °F 33.1 °F 83% 29.82 in 10.0 mi South 6.9 mph - 0.00 in   Overcast
10:51 AM 39.2 °F - 35.6 °F 87% 29.78 in 10.0 mi Calm Calm - 0.00 in Rain Light Rain
10:56 AM 39.9 °F 35.1 °F 37.0 °F 89% 29.80 in 10.0 mi NW 6.9 mph - 0.00 in Rain Light Rain
11:06 AM 39.2 °F 35.9 °F 37.4 °F 93% 29.78 in 10.0 mi WNW 4.6 mph - 0.00 in Rain Light Rain
11:56 AM 39.0 °F 36.8 °F 37.0 °F 93% 29.78 in 5.0 mi West 3.5 mph - 0.02 in Rain Light Rain
12:03 PM 39.2 °F 37.0 °F 37.4 °F 93% 29.75 in 5.0 mi West 3.5 mph - 0.01 in Rain Light Rain
12:32 PM 39.2 °F 35.9 °F 37.4 °F 93% 29.74 in 4.0 mi West 4.6 mph - 0.03 in Rain Light Rain
12:56 PM 39.9 °F 37.8 °F 37.9 °F 93% 29.75 in 4.0 mi West 3.5 mph - 0.05 in Rain Light Rain
1:09 PM 39.2 °F 37.0 °F 37.4 °F 93% 29.73 in 5.0 mi West 3.5 mph - 0.00 in Rain Light Rain
1:35 PM 39.2 °F 33.6 °F 37.4 °F 93% 29.72 in 7.0 mi WNW 8.1 mph - 0.01 in Rain Light Rain
1:56 PM 41.0 °F 35.8 °F 37.9 °F 89% 29.74 in 10.0 mi West 8.1 mph - 0.02 in Rain Light Rain
2:56 PM 41.0 °F 35.2 °F 37.9 °F 89% 29.74 in 8.0 mi West 9.2 mph - 0.00 in Rain Light Rain
3:53 PM 39.2 °F 32.5 °F 37.4 °F 93% 29.72 in 10.0 mi West 10.4 mph - 0.01 in Rain Light Rain
3:56 PM 39.9 °F 32.9 °F 37.0 °F 89% 29.75 in 10.0 mi WSW 11.5 mph - 0.01 in Rain Light Rain
4:56 PM 39.9 °F 35.1 °F 35.1 °F 83% 29.76 in 10.0 mi WSW 6.9 mph - 0.00 in   Overcast
5:56 PM 37.9 °F 31.5 °F 34.0 °F 86% 29.79 in 10.0 mi WSW 9.2 mph - N/A   Scattered Clouds
6:03 PM 37.4 °F 31.4 °F 35.6 °F 93% 29.77 in 10.0 mi WSW 8.1 mph - N/A   Mostly Cloudy
6:56 PM 39.0 °F 32.8 °F 35.1 °F 86% 29.81 in 8.0 mi WSW 9.2 mph - N/A   Overcast
7:56 PM 39.0 °F 30.6 °F 34.0 °F 82% 29.83 in 7.0 mi West 15.0 mph 25.3 mph N/A   Overcast
8:43 PM 37.4 °F 27.5 °F 33.8 °F 87% 29.83 in 4.0 mi WNW 18.4 mph 27.6 mph 0.00 in Rain Light Rain
8:56 PM 37.0 °F 27.4 °F 34.0 °F 89% 29.86 in 3.0 mi WNW 17.3 mph - 0.00 in Rain Light Rain
9:56 PM 36.0 °F 26.3 °F 32.0 °F 86% 29.87 in 5.0 mi WNW 16.1 mph - 0.00 in   Overcast
10:06 PM 35.6 °F 27.1 °F 33.8 °F 93% 29.85 in 4.0 mi West 12.7 mph - 0.00 in   Overcast
10:27 PM 33.8 °F 22.8 °F 30.2 °F 87% 29.86 in 4.0 mi NNW 18.4 mph 26.5 mph 0.00 in Rain Light Rain
10:30 PM 32.0 °F 19.8 °F 28.4 °F 87% 29.86 in 4.0 mi NNW 20.7 mph 26.5 mph 0.00 in Rain Light Freezing Rain
10:56 PM 30.0 °F 18.3 °F 28.0 °F 92% 29.92 in 5.0 mi NNW 17.3 mph - 0.00 in Rain Light Freezing Rain
11:19 PM 30.2 °F 18.5 °F 28.4 °F 93% 29.90 in 4.0 mi NNW 17.3 mph 21.9 mph 0.00 in Rain Light Freezing Rain
11:39 PM 30.2 °F 20.8 °F 26.6 °F 86% 29.91 in 5.0 mi NNW 11.5 mph - 0.00 in Rain Light Freezing Rain
11:56 PM 28.9 °F 18.6 °F 27.0 °F 92% 29.95 in 9.0 mi NNW 12.7 mph - 0.00 in Rain Light Freezing Rain